Weather in Pietra Ligure

Italy     44°09′15″N   8°17′46″E
temp.,
°C
wind,
m/s
gust,
m/s
humid.,
%
clouds,
%
prec.,
mm/h
press.,
hPa
HPBL,
m
16 october, sat
sat1623:00+8nw336819 0.0 101744
02:00+8nw34725 0.0 101866
05:00+7nw34785 0.0 101779
08:00+7nw34785 0.0 101868
11:00+15nnw344913 0.0 1018547
14:00+17n243934 0.0 10171087
17:00+16n23455 0.0 1016764
20:00+9nw33740 0.0 101958
17 october, sun
sun1723:00+9nw34740 0.0 102065
02:00+8nw34760 0.0 102062
05:00+8nw34770 0.0 102060
08:00+8nw33780 0.0 102058
11:00+15n12480 0.0 1020594
14:00+17ese22440 0.0 10191051
17:00+15se21560 0.0 1019465
20:00+10wnw11810 0.0 102118
18 october, mon
mon1823:00+10nw217921 0.0 102219
02:00+9wnw217973 0.0 102217
05:00+9nw2181100 0.0 102219
08:00+10wnw1178100 0.0 102218
11:00+15se116014 0.0 1023558
14:00+17se325910 0.0 1022954
17:00+15se217422 0.0 1022479
20:00+11wnw1194100 0.0 102416
19 october, tue
tue1923:00+11wnw1189100 0.0 102516
02:00+10nw228813 0.0 102623
05:00+9nw228837 0.0 102623
08:00+9wnw218748 0.0 102719
11:00+15se2267100 0.0 1027510
14:00+16se3367100 0.0 1026851
17:00+14sse238278 0.0 1026493
20:00+12se129387 0.0 1027121
20 october, wed
wed2023:00+12se129390 0.0 1027111
02:00+12se129490 0.1 1026105
05:00+12sse139685 0.3 1025147
08:00+12s119661 0.6 102551
11:00+15sse238263 0.4 1024707
14:00+14sse3589100 1.0 1023600
17:00+13sse3693100 0.4 1021518
20:00+13sse2494100 0.6 1020254